Location: Unspecified
(0.0000°N, 0.0000°E)
Time: 00:47:30
(UTC+00:00)

deb Explorer IX - Visible Passes

Search period start: 20 July 2019 00:00
Search period end: 30 July 2019 00:00
Orbit: 539 x 1112 km, 38.8° (Epoch: 19 July)

Date Brightness Start Highest point End Pass type
(mag) Time Alt. Az. Time Alt. Az. Time Alt. Az.
23 Jul ? 20:12:51 10° SSW 20:14:42 18° SSW 20:14:42 18° SSW visible
24 Jul ? 19:50:40 10° SSW 19:55:12 32° S 19:55:12 32° S visible
25 Jul ? 19:28:28 10° SSW 19:35:01 39° SE 19:35:56 37° ESE visible
25 Jul ? 21:16:10 10° WSW 21:17:26 15° WSW 21:17:26 15° WSW visible
26 Jul ? 19:06:18 10° SSW 19:12:59 41° SE 19:16:56 21° E visible
26 Jul ? 20:54:02 10° WSW 20:58:27 32° WNW 20:58:27 32° WNW visible
27 Jul ? 18:44:07 10° SSW 18:50:56 43° SE 18:57:07 10° ENE visible
27 Jul ? 20:31:56 10° WSW 20:38:16 38° NW 20:39:40 34° NNW visible
28 Jul ? 18:21:57 10° SSW 18:28:52 44° SE 18:35:14 10° ENE visible
28 Jul ? 20:09:49 10° WSW 20:16:14 37° NW 20:21:00 15° NNE visible
29 Jul ? 19:47:42 10° WSW 19:54:12 37° NW 20:00:03 10° NNE visible
